Starlink 30969

operational
NORAD ID: 58438 Int'l Des: 2023-183 Owner: SPXS Country: US Constellation: starlink
LEOCIRCULAR

About Starlink 30969

Description loading...

Live Position

Loading 3D Globe...

Upcoming Passes

Altitude History

Altitude vs Time

uPlot chart will show altitude changes over time

Two-Line Element Set

1 58438U 23183B 25258.32853468 .00000356 00000-0 41395-4 0 9996
2 58438 43.0028 276.3379 0001105 276.2984 83.7733 15.02536737100336
Epoch: Sep 15, 2025 • Age: 18 hours

Current Status

Altitude 560.5 km
Velocity 7.59 km/s
Sub-Earth Point 31.19°N, 26.52°E
Launch Date Nov 28, 2023
Age 1.7 years
Type internet

Technical Details

Classification Payload
Mass 730.00 kg
Dry Mass 700.00 kg
Total Mass 730.00 kg
Length 0.30 m
Diameter 4.10 m
Span 29.00 m
Shape Box + pan
Manufacturer SPXS
Bus Type Starlink V2M
Phase Status In Orbit
Owner/State SPXS/US

Large Constellations

Loading constellations...